Fort Rucker / Ozark, AL

7:14 AM CDT on October 20, 2019 (GMT -0500)
Fort Rucker / Ozark

Weather History for KLOR - September, 2019

Change the Weather History Date:

Tuesday, September 17, 2019

  Actual Average (KOZR) Record (KOZR)
Temperature  
Mean Temperature 82 °F -  
Max Temperature 100 °F 82 °F 100 °F (2019)
Min Temperature 65 °F 63 °F 51 °F (2001)
Cooling Degree Days 18    
Growing Degree Days 32 (Base 50)    
Moisture  
Dew Point 65 °F    
Average Humidity 62    
Maximum Humidity 100    
Minimum Humidity 25    
Precipitation  
Precipitation 0.00 in - - ()
Sea Level Pressure  
Sea Level Pressure 29.91 in    
Wind  
Wind Speed 2 mph (WNW)    
Max Wind Speed 9 mph    
Max Gust Speed -    
Visibility 10 miles    
Events      
Averages and records for this station are not official NWS values.
T = Trace of Precipitation, MM = Missing Value Source: NWS Daily Summary

Daily Weather History Graph

Daily Weather History Graph

Search for Another Location

Airport or City:

Astronomy

Sep. 17, 2019 Rise Set
Actual Time 6:28 AM CDT 6:46 PM CDT
Civil Twilight 6:03 AM CDT 7:10 PM CDT
Nautical Twilight 5:35 AM CDT 7:39 PM CDT
Astronomical Twilight 5:06 AM CDT 8:07 PM CDT
Moon 9:00 PM CDT (9/17) 9:22 AM CDT (9/17)
Length of Visible Light 13h 06m
Length of Day
12h 18m
Waning Gibbous, 89% of the Moon is Illuminated
Sep 17
Waning Gibbous
Sep 21
Last Quarter
Sep 28
New
Oct 5
First Quarter
Oct 13
Full

Hourly Weather History & Observations

Time (CDT) Temp. Heat Index Dew Point Humidity Pressure Visibility Wind Dir Wind Speed Gust Speed Precip Events Conditions
12:58 AM 69.1 °F - 66.9 °F 93% 29.93 in 10.0 mi Calm Calm - N/A   Clear
1:58 AM 67.8 °F - 66.7 °F 96% 29.91 in 10.0 mi Calm Calm - N/A   Clear
2:58 AM 67.1 °F - 66.6 °F 98% 29.91 in 10.0 mi Calm Calm - N/A   Clear
3:58 AM 67.1 °F - 66.7 °F 99% 29.91 in 10.0 mi Calm Calm - N/A   Clear
4:58 AM 66.4 °F - 66.2 °F 99% 29.91 in 10.0 mi Calm Calm - N/A   Clear
5:58 AM 65.8 °F - 65.8 °F 100% 29.93 in 10.0 mi Calm Calm - N/A   Clear
6:53 AM 66.2 °F - 66.2 °F 100% 29.95 in 10.0 mi Calm Calm - N/A   Clear
6:58 AM 66.0 °F - 66.0 °F 100% 29.95 in 10.0 mi Calm Calm - N/A   Clear
7:58 AM 76.5 °F - 70.3 °F 81% 29.96 in 10.0 mi NW 3.5 mph - N/A   Clear
8:58 AM 83.7 °F 88.0 °F 70.3 °F 64% 29.96 in 10.0 mi Calm Calm - N/A   Clear
9:58 AM 89.2 °F 94.5 °F 70.0 °F 53% 29.96 in 10.0 mi Calm Calm - N/A   Clear
10:58 AM 93.9 °F 98.6 °F 68.0 °F 43% 29.96 in 10.0 mi Calm Calm - N/A   Clear
11:58 AM 96.8 °F 98.0 °F 62.4 °F 32% 29.94 in 10.0 mi NW 6.9 mph - N/A   Clear
12:30 PM 98.6 °F 100.0 °F 62.6 °F 30% 29.93 in 10.0 mi West 3.5 mph - N/A   Mostly Cloudy
12:58 PM 97.0 °F 97.4 °F 61.0 °F 30% 29.93 in 10.0 mi Calm Calm - N/A   Scattered Clouds
1:40 PM 96.8 °F 97.1 °F 60.8 °F 30% 29.91 in 10.0 mi West 3.5 mph - N/A   Mostly Cloudy
1:58 PM 98.8 °F 99.7 °F 61.0 °F 29% 29.91 in 10.0 mi North 6.9 mph - N/A   Mostly Cloudy
2:26 PM 100.4 °F 100.2 °F 59.0 °F 25% 29.88 in 10.0 mi NW 9.2 mph - N/A   Partly Cloudy
2:58 PM 99.5 °F 99.9 °F 59.5 °F 27% 29.88 in 10.0 mi WNW 6.9 mph - N/A   Partly Cloudy
3:58 PM 99.5 °F 99.9 °F 59.5 °F 27% 29.86 in 10.0 mi West 8.1 mph - N/A   Scattered Clouds
4:58 PM 98.4 °F 98.7 °F 59.7 °F 28% 29.86 in 10.0 mi NW 4.6 mph - N/A   Clear
5:58 PM 95.4 °F 95.3 °F 59.9 °F 31% 29.86 in 10.0 mi NW 4.6 mph - N/A   Clear
7:58 PM 80.6 °F 82.4 °F 65.1 °F 59% 29.87 in 10.0 mi Calm Calm - N/A   Clear
8:54 PM 77.0 °F - 68.0 °F 74% 29.88 in 10.0 mi Calm Calm - N/A   Clear
8:58 PM 77.2 °F - 67.3 °F 71% 29.88 in 10.0 mi Calm Calm - N/A   Clear
9:58 PM 75.4 °F - 67.8 °F 77% 29.90 in 10.0 mi Calm Calm - N/A   Clear
10:58 PM 79.3 °F - 66.4 °F 64% 29.89 in 10.0 mi West 3.5 mph - N/A   Clear
11:58 PM 79.7 °F - 67.6 °F 66% 29.88 in 10.0 mi West 5.8 mph - N/A   Clear